Atlanta, Georgia
Traffic Map
Current Weather Conditions
Atlanta, Georgia
Broken Clouds
Broken Clouds
23°
Feels Like: 23°
Wind Chill: 23° Ceiling: 25000
Heat Index: 23° Visibility: 10mi
Dew Point: 20° Wind: 8mph
Humidity: 84% Direction: 260° (W)
Pressure: 30.12in Gusts: 0mph
Raw Report DataKATL 060452Z 26007KT 10SM FEW065 SCT200 BKN250 23/20 A3012 RMK AO2 SLP192 T02280200 402890206 $
Traffic Incident Summary
Active as of:
Severity:
Category:
InformationThere was an issue retrieving the traffic information for this location. Please try a different location or try again shortly.
Advertisements
Track Severe Weather on mobile